Regional Weather Roundup
Issued by NWS

Home | Current Version | Previous Version | Graphics & Text | Print | Product List | Glossary On
Versions: 1 2 3 4 5 6 7 8 9 10 11 12 13 14 15 16 17 18 19 20 21 22 23 24 25 26 27 28 29 30 31 32 33 34 35 36 37 38 39 40 41 42 43 44 45 46 47 48 49 50
000
ASUS43 KLMK 251802
RWRKY
KENTUCKY REGIONAL WEATHER ROUNDUP
NATIONAL WEATHER SERVICE LOUISVILLE KY
200 PM EDT WED MAY 25 2016

NOTE "FAIR" INDICATES FEW OR NO CLOUDS BELOW 12,000 FEET
WITH NO SIGNIFICANT WEATHER AND/OR OBSTRUCTIONS TO VISIBILITY.

KYZ001>023-026-027-061>063-070>075-251900-
WESTERN AND SOUTH CENTRAL KENTUCKY

CITY           SKY/WX    TMP DP  RH WIND       PRES   REMARKS
PADUCAH        CLOUDY    71  67  87 SE8       30.08F
HENDERSON      CLOUDY    72  66  83 SW6       30.11R
OWENSBORO      PTSUNNY   81  68  64 W13       30.11F
HOPKINSVILLE   MOSUNNY   73  70  88 NW7       30.11F
BOWLING GREEN  CLOUDY    78  63  59 S12       30.14S
GLASGOW        NOT AVBL
$$

KYZ024-025-028>034-038-045-046-053-251900-
NORTH CENTRAL KENTUCKY

CITY           SKY/WX    TMP DP  RH WIND       PRES   REMARKS
LOUISVILLE/SDF CLOUDY    81  63  54 SW12G18   30.10F
LOUISVILLE/LOU CLOUDY    81  63  54 SW15      30.11F
FORT KNOX      NOT AVBL
$$

KYZ035>037-039>044-047>052-055>060-089>105-251900-
NORTHEAST KENTUCKY

CITY           SKY/WX    TMP DP  RH WIND       PRES   REMARKS
LEXINGTON      CLOUDY    82  62  50 SW14      30.15F
COVINGTON      CLOUDY    77  61  57 SW12      30.12F
FRANKFORT      CLOUDY    83  62  49 S12G18    30.12F
$$

KYZ054-064>069-076>088-106>120-251900-
SOUTHEAST KENTUCKY

CITY           SKY/WX    TMP DP  RH WIND       PRES   REMARKS
JACKSON        PTSUNNY   80  59  48 CALM      30.21R
LONDON         MOSUNNY   80  58  46 SW12      30.19F
SOMERSET       NOT AVBL
MIDDLESBORO    SUNNY     79  59  50 S6        30.22F
MONTICELLO     MOCLDY    80  62  54 W20G26    30.20S
$$





USA.gov is the U.S. government's official web portal to all federal, state and local government web resources and services.